Location: Casilda
(33.0440°S, 61.1680°W)
Time: 14:18:40
(UTC-03:00)

ISS - Pass Details

Date: 10 April 2021
Orbit: 418 x 422 km, 51.6° (Epoch: 17 April)

Event Time Altitude Azimuth Distance (km) Brightness Sun altitude
Exits shadow 06:30:02 - 216° (SW) 1,675 -1.1 -11.9°
Reaches altitude 10° 06:30:25 10° 215° (SW) 1,526 -1.3 -11.8°
Maximum altitude 06:33:45 47° 139° (SE) 578 -2.8 -11.1°
Drops below altitude 10° 06:37:02 10° 64° (ENE) 1,511 0.3 -10.4°
Sets 06:39:11 0° 57° (ENE) 2,370 1.2 -10.0°
